Year,Month,Day,Hour,Minute,Value (Times are PST for temperature in C)
2017,09,20,00,00,9.30
2017,09,20,00,01,9.30
2017,09,20,00,02,9.30
2017,09,20,00,03,9.30
2017,09,20,00,04,9.30
2017,09,20,00,05,9.30
2017,09,20,00,06,9.30
2017,09,20,00,07,9.30
2017,09,20,00,08,9.30
2017,09,20,00,09,9.30
2017,09,20,00,10,9.30
2017,09,20,00,11,9.30
2017,09,20,00,12,9.20
2017,09,20,00,13,9.20
2017,09,20,00,14,9.20
2017,09,20,00,15,9.20
2017,09,20,00,16,9.20
2017,09,20,00,17,9.20
2017,09,20,00,18,9.20
2017,09,20,00,19,9.20
2017,09,20,00,20,9.20
2017,09,20,00,21,9.20
2017,09,20,00,22,9.20
2017,09,20,00,23,9.20
2017,09,20,00,24,9.10
2017,09,20,00,25,9.10
2017,09,20,00,26,9.10
2017,09,20,00,27,9.10
2017,09,20,00,28,9.10
2017,09,20,00,29,9.10
2017,09,20,00,30,9.10
2017,09,20,00,31,9.00
2017,09,20,00,32,9.00
2017,09,20,00,33,9.00
2017,09,20,00,34,9.00
2017,09,20,00,35,9.00
2017,09,20,00,36,8.90
2017,09,20,00,37,8.90
2017,09,20,00,38,8.90
2017,09,20,00,39,8.90
2017,09,20,00,40,8.80
2017,09,20,00,41,8.80
2017,09,20,00,42,8.70
2017,09,20,00,43,8.70
2017,09,20,00,44,8.70
2017,09,20,00,45,8.70
2017,09,20,00,46,8.70
2017,09,20,00,47,8.70
2017,09,20,00,48,8.60
2017,09,20,00,49,8.60
2017,09,20,00,50,8.60
2017,09,20,00,51,8.60
2017,09,20,00,52,8.50
2017,09,20,00,53,8.50
2017,09,20,00,54,8.50
2017,09,20,00,55,8.50
2017,09,20,00,56,8.40
2017,09,20,00,57,8.40
2017,09,20,00,58,8.40
2017,09,20,00,59,8.30
2017,09,20,01,00,8.30
2017,09,20,01,01,8.30
2017,09,20,01,02,8.20
2017,09,20,01,03,8.20
2017,09,20,01,04,8.20
2017,09,20,01,05,8.20
2017,09,20,01,06,8.20
2017,09,20,01,07,8.10
2017,09,20,01,08,8.10
2017,09,20,01,09,8.10
2017,09,20,01,10,8.10
2017,09,20,01,11,8.10
2017,09,20,01,12,8.00
2017,09,20,01,13,8.10
2017,09,20,01,14,8.10
2017,09,20,01,15,8.10
2017,09,20,01,16,8.10
2017,09,20,01,17,8.00
2017,09,20,01,18,8.00
2017,09,20,01,19,8.10
2017,09,20,01,20,8.10
2017,09,20,01,21,8.10
2017,09,20,01,22,8.10
2017,09,20,01,23,8.10
2017,09,20,01,24,8.10
2017,09,20,01,25,8.10
2017,09,20,01,26,8.10
2017,09,20,01,27,8.10
2017,09,20,01,28,8.00
2017,09,20,01,29,8.00
2017,09,20,01,30,7.90
2017,09,20,01,31,7.90
2017,09,20,01,32,7.90
2017,09,20,01,33,7.80
2017,09,20,01,34,7.80
2017,09,20,01,35,7.80
2017,09,20,01,36,7.80
2017,09,20,01,37,7.80
2017,09,20,01,38,7.80
2017,09,20,01,39,7.80
2017,09,20,01,40,7.80
2017,09,20,01,41,7.80
2017,09,20,01,42,7.80
2017,09,20,01,43,7.80
2017,09,20,01,44,7.80
2017,09,20,01,45,7.80
2017,09,20,01,46,7.80
2017,09,20,01,47,7.80
2017,09,20,01,48,7.80
2017,09,20,01,49,7.80
2017,09,20,01,50,7.80
2017,09,20,01,51,7.80
2017,09,20,01,52,7.80
2017,09,20,01,53,7.80
2017,09,20,01,54,7.80
2017,09,20,01,55,7.80
2017,09,20,01,56,7.80
2017,09,20,01,57,7.80
2017,09,20,01,58,7.80
2017,09,20,01,59,7.80
2017,09,20,02,00,7.80
2017,09,20,02,01,7.80
2017,09,20,02,02,7.80
2017,09,20,02,03,7.80
2017,09,20,02,04,7.80
2017,09,20,02,05,7.80
2017,09,20,02,06,7.80
2017,09,20,02,07,7.80
2017,09,20,02,08,7.80
2017,09,20,02,09,7.80
2017,09,20,02,10,7.80
2017,09,20,02,11,7.80
2017,09,20,02,12,7.80
2017,09,20,02,13,7.80
2017,09,20,02,14,7.70
2017,09,20,02,15,7.70
2017,09,20,02,16,7.70
2017,09,20,02,17,7.70
2017,09,20,02,18,7.60
2017,09,20,02,19,7.60
2017,09,20,02,20,7.60
2017,09,20,02,21,7.60
2017,09,20,02,22,7.60
2017,09,20,02,23,7.60
2017,09,20,02,24,7.50
2017,09,20,02,25,7.50
2017,09,20,02,26,7.50
2017,09,20,02,27,7.50
2017,09,20,02,28,7.50
2017,09,20,02,29,7.50
2017,09,20,02,30,7.50
2017,09,20,02,31,7.50
2017,09,20,02,32,7.50
2017,09,20,02,33,7.60
2017,09,20,02,34,7.60
2017,09,20,02,35,7.60
2017,09,20,02,36,7.60
2017,09,20,02,37,7.60
2017,09,20,02,38,7.60
2017,09,20,02,39,7.60
2017,09,20,02,40,7.60
2017,09,20,02,41,7.60
2017,09,20,02,42,7.60
2017,09,20,02,43,7.60
2017,09,20,02,44,7.50
2017,09,20,02,45,7.50
2017,09,20,02,46,7.50
2017,09,20,02,47,7.50
2017,09,20,02,48,7.60
2017,09,20,02,49,7.60
2017,09,20,02,50,7.60
2017,09,20,02,51,7.60
2017,09,20,02,52,7.60
2017,09,20,02,53,7.70
2017,09,20,02,54,7.70
2017,09,20,02,55,7.70
2017,09,20,02,56,7.80
2017,09,20,02,57,7.80
2017,09,20,02,58,7.80
2017,09,20,02,59,7.80
2017,09,20,03,00,7.90
2017,09,20,03,01,7.90
2017,09,20,03,02,7.90
2017,09,20,03,03,8.00
2017,09,20,03,04,8.00
2017,09,20,03,05,8.10
2017,09,20,03,06,8.10
2017,09,20,03,07,8.10
2017,09,20,03,08,8.10
2017,09,20,03,09,8.10
2017,09,20,03,10,8.10
2017,09,20,03,11,8.10
2017,09,20,03,12,8.00
2017,09,20,03,13,8.00
2017,09,20,03,14,8.00
2017,09,20,03,15,8.00
2017,09,20,03,16,8.00
2017,09,20,03,17,8.00
2017,09,20,03,18,8.00
2017,09,20,03,19,7.90
2017,09,20,03,20,7.90
2017,09,20,03,21,7.90
2017,09,20,03,22,7.90
2017,09,20,03,23,7.90
2017,09,20,03,24,7.90
2017,09,20,03,25,7.90
2017,09,20,03,26,7.90
2017,09,20,03,27,7.90
2017,09,20,03,28,7.90
2017,09,20,03,29,7.90
2017,09,20,03,30,7.90
2017,09,20,03,31,7.90
2017,09,20,03,32,7.90
2017,09,20,03,33,7.90
2017,09,20,03,34,7.80
2017,09,20,03,35,7.80
2017,09,20,03,36,7.80
2017,09,20,03,37,7.80
2017,09,20,03,38,7.80
2017,09,20,03,39,7.80
2017,09,20,03,40,7.80
2017,09,20,03,41,7.80
2017,09,20,03,42,7.80
2017,09,20,03,43,7.80
2017,09,20,03,44,7.80
2017,09,20,03,45,7.80
2017,09,20,03,46,7.80
2017,09,20,03,47,7.80
2017,09,20,03,48,7.80
2017,09,20,03,49,7.80
2017,09,20,03,50,7.70
2017,09,20,03,51,7.70
2017,09,20,03,52,7.70
2017,09,20,03,53,7.70
2017,09,20,03,54,7.70
2017,09,20,03,55,7.60
2017,09,20,03,56,7.60
2017,09,20,03,57,7.60
2017,09,20,03,58,7.60
2017,09,20,03,59,7.60
2017,09,20,04,00,7.60
2017,09,20,04,01,7.50
2017,09,20,04,02,7.50
2017,09,20,04,03,7.50
2017,09,20,04,04,7.40
2017,09,20,04,05,7.40
2017,09,20,04,06,7.40
2017,09,20,04,07,7.40
2017,09,20,04,08,7.30
2017,09,20,04,09,7.30
2017,09,20,04,10,7.30
2017,09,20,04,11,7.30
2017,09,20,04,12,7.30
2017,09,20,04,13,7.30
2017,09,20,04,14,7.30
2017,09,20,04,15,7.30
2017,09,20,04,16,7.30
2017,09,20,04,17,7.30
2017,09,20,04,18,7.30
2017,09,20,04,19,7.30
2017,09,20,04,20,7.40
2017,09,20,04,21,7.40
2017,09,20,04,22,7.40
2017,09,20,04,23,7.40
2017,09,20,04,24,7.40
2017,09,20,04,25,7.40
2017,09,20,04,26,7.50
2017,09,20,04,27,7.50
2017,09,20,04,28,7.60
2017,09,20,04,29,7.60
2017,09,20,04,30,7.60
2017,09,20,04,31,7.60
2017,09,20,04,32,7.60
2017,09,20,04,33,7.60
2017,09,20,04,34,7.70
2017,09,20,04,35,7.70
2017,09,20,04,36,7.70
2017,09,20,04,37,7.70
2017,09,20,04,38,7.70
2017,09,20,04,39,7.70
2017,09,20,04,40,7.70
2017,09,20,04,41,7.70
2017,09,20,04,42,7.70
2017,09,20,04,43,7.80
2017,09,20,04,44,7.80
2017,09,20,04,45,7.80
2017,09,20,04,46,7.80
2017,09,20,04,47,7.80
2017,09,20,04,48,7.80
2017,09,20,04,49,7.80
2017,09,20,04,50,7.90
2017,09,20,04,51,7.90
2017,09,20,04,52,7.90
2017,09,20,04,53,7.90
2017,09,20,04,54,7.90
2017,09,20,04,55,7.90
2017,09,20,04,56,7.90
2017,09,20,04,57,7.90
2017,09,20,04,58,7.90
2017,09,20,04,59,7.90
2017,09,20,05,00,7.90
2017,09,20,05,01,7.90
2017,09,20,05,02,7.90
2017,09,20,05,03,7.90
2017,09,20,05,04,7.90
2017,09,20,05,05,7.90
2017,09,20,05,06,7.90
2017,09,20,05,07,7.90
2017,09,20,05,08,7.90
2017,09,20,05,09,7.90
2017,09,20,05,10,7.90
2017,09,20,05,11,7.90
2017,09,20,05,12,7.90
2017,09,20,05,13,8.00
2017,09,20,05,14,8.00
2017,09,20,05,15,8.00
2017,09,20,05,16,8.00
2017,09,20,05,17,8.00
2017,09,20,05,18,8.00
2017,09,20,05,19,8.00
2017,09,20,05,20,8.00
2017,09,20,05,21,8.00
2017,09,20,05,22,8.00
2017,09,20,05,23,8.00
2017,09,20,05,24,8.00
2017,09,20,05,25,8.10
2017,09,20,05,26,8.10
2017,09,20,05,27,8.10
2017,09,20,05,28,8.10
2017,09,20,05,29,8.10
2017,09,20,05,30,8.10
2017,09,20,05,31,8.20
2017,09,20,05,32,8.20
2017,09,20,05,33,8.20
2017,09,20,05,34,8.20
2017,09,20,05,35,8.20
2017,09,20,05,36,8.20
2017,09,20,05,37,8.20
2017,09,20,05,38,8.20
2017,09,20,05,39,8.20
2017,09,20,05,40,8.20
2017,09,20,05,41,8.20
2017,09,20,05,42,8.20
2017,09,20,05,43,8.20
2017,09,20,05,44,8.20
2017,09,20,05,45,8.20
2017,09,20,05,46,8.20
2017,09,20,05,47,8.30
2017,09,20,05,48,8.30
2017,09,20,05,49,8.30
2017,09,20,05,50,8.30
2017,09,20,05,51,8.30
2017,09,20,05,52,8.30
2017,09,20,05,53,8.30
2017,09,20,05,54,8.30
2017,09,20,05,55,8.40
2017,09,20,05,56,8.40
2017,09,20,05,57,8.40
2017,09,20,05,58,8.40
2017,09,20,05,59,8.50
2017,09,20,06,00,8.50
2017,09,20,06,01,8.60
2017,09,20,06,02,8.60
2017,09,20,06,03,8.60
2017,09,20,06,04,8.70
2017,09,20,06,05,8.70
2017,09,20,06,06,8.70
2017,09,20,06,07,8.70
2017,09,20,06,08,8.70
2017,09,20,06,09,8.80
2017,09,20,06,10,8.80
2017,09,20,06,11,8.80
2017,09,20,06,12,8.80
2017,09,20,06,13,8.80
2017,09,20,06,14,8.80
2017,09,20,06,15,8.90
2017,09,20,06,16,8.90
2017,09,20,06,17,8.90
2017,09,20,06,18,8.90
2017,09,20,06,19,8.90
2017,09,20,06,20,8.90
2017,09,20,06,21,9.00
2017,09,20,06,22,9.00
2017,09,20,06,23,9.00
2017,09,20,06,24,9.00
2017,09,20,06,25,9.00
2017,09,20,06,26,9.00
2017,09,20,06,27,9.00
2017,09,20,06,28,9.00
2017,09,20,06,29,9.00
2017,09,20,06,30,9.10
2017,09,20,06,31,9.10
2017,09,20,06,32,9.10
2017,09,20,06,33,9.10
2017,09,20,06,34,9.20
2017,09,20,06,35,9.20
2017,09,20,06,36,9.20
2017,09,20,06,37,9.20
2017,09,20,06,38,9.20
2017,09,20,06,39,9.20
2017,09,20,06,40,9.20
2017,09,20,06,41,9.20
2017,09,20,06,42,9.20
2017,09,20,06,43,9.20
2017,09,20,06,44,9.20
2017,09,20,06,45,9.20
2017,09,20,06,46,9.30
2017,09,20,06,47,9.30
2017,09,20,06,48,9.30
2017,09,20,06,49,9.30
2017,09,20,06,50,9.30
2017,09,20,06,51,9.30
2017,09,20,06,52,9.30
2017,09,20,06,53,9.30
2017,09,20,06,54,9.30
2017,09,20,06,55,9.30
2017,09,20,06,56,9.30
2017,09,20,06,57,9.40
2017,09,20,06,58,9.40
2017,09,20,06,59,9.40
2017,09,20,07,00,9.40
2017,09,20,07,01,9.40
2017,09,20,07,02,9.40
2017,09,20,07,03,9.40
2017,09,20,07,04,9.40
2017,09,20,07,05,9.40
2017,09,20,07,06,9.40
2017,09,20,07,07,9.50
2017,09,20,07,08,9.50
2017,09,20,07,09,9.50
2017,09,20,07,10,9.50
2017,09,20,07,11,9.50
2017,09,20,07,12,9.50
2017,09,20,07,13,9.50
2017,09,20,07,14,9.50
2017,09,20,07,15,9.60
2017,09,20,07,16,9.60
2017,09,20,07,17,9.60
2017,09,20,07,18,9.60
2017,09,20,07,19,9.60
2017,09,20,07,20,9.60
2017,09,20,07,21,9.60
2017,09,20,07,22,9.60
2017,09,20,07,23,9.60
2017,09,20,07,24,9.60
2017,09,20,07,25,9.60
2017,09,20,07,26,9.60
2017,09,20,07,27,9.60
2017,09,20,07,28,9.60
2017,09,20,07,29,9.70
2017,09,20,07,30,9.70
2017,09,20,07,31,9.70
2017,09,20,07,32,9.70
2017,09,20,07,33,9.70
2017,09,20,07,34,9.70
2017,09,20,07,35,9.70
2017,09,20,07,36,9.70
2017,09,20,07,37,9.70
2017,09,20,07,38,9.70
2017,09,20,07,39,9.70
2017,09,20,07,40,9.70
2017,09,20,07,41,9.70
2017,09,20,07,42,9.70
2017,09,20,07,43,9.70
2017,09,20,07,44,9.70
2017,09,20,07,45,9.70
2017,09,20,07,46,9.70
2017,09,20,07,47,9.80
2017,09,20,07,48,9.80
2017,09,20,07,49,9.80
2017,09,20,07,50,9.80
2017,09,20,07,51,9.80
2017,09,20,07,52,9.80
2017,09,20,07,53,9.80
2017,09,20,07,54,9.80
2017,09,20,07,55,9.80
2017,09,20,07,56,9.90
2017,09,20,07,57,9.90
2017,09,20,07,58,9.90
2017,09,20,07,59,9.90
2017,09,20,08,00,9.90
2017,09,20,08,01,9.90
2017,09,20,08,02,9.90
2017,09,20,08,03,9.90
2017,09,20,08,04,9.90
2017,09,20,08,05,9.90
2017,09,20,08,06,9.90
2017,09,20,08,07,9.90
2017,09,20,08,08,9.90
2017,09,20,08,09,9.90
2017,09,20,08,10,9.80
2017,09,20,08,11,9.80
2017,09,20,08,12,9.80
2017,09,20,08,13,9.80
2017,09,20,08,14,9.80
2017,09,20,08,15,9.80
2017,09,20,08,16,9.80
2017,09,20,08,17,9.80
2017,09,20,08,18,9.80
2017,09,20,08,19,9.90
2017,09,20,08,20,9.90
2017,09,20,08,21,9.90
2017,09,20,08,22,9.90
2017,09,20,08,23,9.90
2017,09,20,08,24,9.90
2017,09,20,08,25,9.90
2017,09,20,08,26,9.90
2017,09,20,08,27,9.90
2017,09,20,08,28,9.90
2017,09,20,08,29,9.90
2017,09,20,08,30,9.90
2017,09,20,08,31,9.90
2017,09,20,08,32,9.90
2017,09,20,08,33,9.90
2017,09,20,08,34,9.90
2017,09,20,08,35,9.90
2017,09,20,08,36,10.00
2017,09,20,08,37,10.10
2017,09,20,08,38,10.10
2017,09,20,08,39,10.10
2017,09,20,08,40,10.10
2017,09,20,08,41,10.10
2017,09,20,08,42,10.10
2017,09,20,08,43,10.10
2017,09,20,08,44,10.20
2017,09,20,08,45,10.20
2017,09,20,08,46,10.20
2017,09,20,08,47,10.20
2017,09,20,08,48,10.20
2017,09,20,08,49,10.20
2017,09,20,08,50,10.30
2017,09,20,08,51,10.30
2017,09,20,08,52,10.30
2017,09,20,08,53,10.40
2017,09,20,08,54,10.40
2017,09,20,08,55,10.40
2017,09,20,08,56,10.40
2017,09,20,08,57,10.40
2017,09,20,08,58,10.40
2017,09,20,08,59,10.40
2017,09,20,09,00,10.40
2017,09,20,09,01,10.40
2017,09,20,09,02,10.50
2017,09,20,09,03,10.60
2017,09,20,09,04,10.60
2017,09,20,09,05,10.60
2017,09,20,09,06,10.60
2017,09,20,09,07,10.60
2017,09,20,09,08,10.60
2017,09,20,09,09,10.60
2017,09,20,09,10,10.60
2017,09,20,09,11,10.60
2017,09,20,09,12,10.70
2017,09,20,09,13,10.70
2017,09,20,09,14,10.70
2017,09,20,09,15,10.70
2017,09,20,09,16,10.70
2017,09,20,09,17,10.70
2017,09,20,09,18,10.80
2017,09,20,09,19,10.80
2017,09,20,09,20,10.80
2017,09,20,09,21,10.90
2017,09,20,09,22,10.90
2017,09,20,09,23,10.90
2017,09,20,09,24,10.90
2017,09,20,09,25,11.10
2017,09,20,09,26,11.10
2017,09,20,09,27,11.10
2017,09,20,09,28,11.10
2017,09,20,09,29,11.10
2017,09,20,09,30,11.10
2017,09,20,09,31,11.20
2017,09,20,09,32,11.20
2017,09,20,09,33,11.30
2017,09,20,09,34,11.30
2017,09,20,09,35,11.30
2017,09,20,09,36,11.30
2017,09,20,09,37,11.40
2017,09,20,09,38,11.40
2017,09,20,09,39,11.50
2017,09,20,09,40,11.60
2017,09,20,09,41,11.60
2017,09,20,09,42,11.60
2017,09,20,09,43,11.60
2017,09,20,09,44,11.70
2017,09,20,09,45,11.80
2017,09,20,09,46,11.80
2017,09,20,09,47,11.80
2017,09,20,09,48,11.80
2017,09,20,09,49,11.80
2017,09,20,09,50,11.80
2017,09,20,09,51,11.80
2017,09,20,09,52,11.80
2017,09,20,09,53,11.80
2017,09,20,09,54,11.90
2017,09,20,09,55,12.00
2017,09,20,09,56,12.00
2017,09,20,09,57,12.10
2017,09,20,09,58,12.20
2017,09,20,09,59,12.30
2017,09,20,10,00,12.30
2017,09,20,10,01,12.30
2017,09,20,10,02,12.30
2017,09,20,10,03,12.40
2017,09,20,10,04,12.50
2017,09,20,10,05,12.60
2017,09,20,10,06,12.60
2017,09,20,10,07,12.70
2017,09,20,10,08,12.70
2017,09,20,10,09,12.60
2017,09,20,10,10,12.60
2017,09,20,10,11,12.70
2017,09,20,10,12,12.70
2017,09,20,10,13,12.70
2017,09,20,10,14,12.70
2017,09,20,10,15,12.60
2017,09,20,10,16,12.60
2017,09,20,10,17,12.50
2017,09,20,10,18,12.50
2017,09,20,10,19,12.40
2017,09,20,10,20,12.50
2017,09,20,10,21,12.50
2017,09,20,10,22,12.50
2017,09,20,10,23,12.60
2017,09,20,10,24,12.70
2017,09,20,10,25,12.70
2017,09,20,10,26,12.80
2017,09,20,10,27,12.80
2017,09,20,10,28,12.80
2017,09,20,10,29,12.80
2017,09,20,10,30,12.80
2017,09,20,10,31,12.80
2017,09,20,10,32,12.80
2017,09,20,10,33,12.80
2017,09,20,10,34,12.80
2017,09,20,10,35,12.80
2017,09,20,10,36,12.80
2017,09,20,10,37,12.70
2017,09,20,10,38,12.70
2017,09,20,10,39,12.70
2017,09,20,10,40,12.70
2017,09,20,10,41,12.70
2017,09,20,10,42,12.70
2017,09,20,10,43,12.70
2017,09,20,10,44,12.80
2017,09,20,10,45,12.80
2017,09,20,10,46,12.80
2017,09,20,10,47,12.80
2017,09,20,10,48,12.80
2017,09,20,10,49,12.80
2017,09,20,10,50,12.80
2017,09,20,10,51,12.80
2017,09,20,10,52,12.90
2017,09,20,10,53,12.80
2017,09,20,10,54,12.80
2017,09,20,10,55,12.80
2017,09,20,10,56,12.80
2017,09,20,10,57,12.80
2017,09,20,10,58,12.70
2017,09,20,10,59,12.70
2017,09,20,11,00,12.70
2017,09,20,11,01,12.70
2017,09,20,11,02,12.70
2017,09,20,11,03,12.70
2017,09,20,11,04,12.70
2017,09,20,11,05,12.70
2017,09,20,11,06,12.70
2017,09,20,11,07,12.70
2017,09,20,11,08,12.70
2017,09,20,11,09,12.70
2017,09,20,11,10,12.70
2017,09,20,11,11,12.70
2017,09,20,11,12,12.70
2017,09,20,11,13,12.70
2017,09,20,11,14,12.80
2017,09,20,11,15,12.80
2017,09,20,11,16,12.90
2017,09,20,11,17,13.00
2017,09,20,11,18,13.10
2017,09,20,11,19,13.20
2017,09,20,11,20,13.20
2017,09,20,11,21,13.30
2017,09,20,11,22,13.30
2017,09,20,11,23,13.40
2017,09,20,11,24,13.40
2017,09,20,11,25,13.40
2017,09,20,11,26,13.40
2017,09,20,11,27,13.40
2017,09,20,11,28,13.40
2017,09,20,11,29,13.40
2017,09,20,11,30,13.40
2017,09,20,11,31,13.50
2017,09,20,11,32,13.50
2017,09,20,11,33,13.50
2017,09,20,11,34,13.50
2017,09,20,11,35,13.50
2017,09,20,11,36,13.50
2017,09,20,11,37,13.40
2017,09,20,11,38,13.40
2017,09,20,11,39,13.30
2017,09,20,11,40,13.30
2017,09,20,11,41,13.30
2017,09,20,11,42,13.30
2017,09,20,11,43,13.20
2017,09,20,11,44,13.20
2017,09,20,11,45,13.10
2017,09,20,11,46,13.10
2017,09,20,11,47,13.10
2017,09,20,11,48,13.10
2017,09,20,11,49,13.20
2017,09,20,11,50,13.30
2017,09,20,11,51,13.30
2017,09,20,11,52,13.30
2017,09,20,11,53,13.40
2017,09,20,11,54,13.50
2017,09,20,11,55,13.50
2017,09,20,11,56,13.60
2017,09,20,11,57,13.60
2017,09,20,11,58,13.70
2017,09,20,11,59,13.70
2017,09,20,12,00,13.70
2017,09,20,12,01,13.70
2017,09,20,12,02,13.70
2017,09,20,12,03,13.80
2017,09,20,12,04,13.90
2017,09,20,12,05,13.90
2017,09,20,12,06,13.90
2017,09,20,12,07,13.90
2017,09,20,12,08,13.80
2017,09,20,12,09,13.70
2017,09,20,12,10,13.60
2017,09,20,12,11,13.50
2017,09,20,12,12,13.50
2017,09,20,12,13,13.50
2017,09,20,12,14,13.50
2017,09,20,12,15,13.60
2017,09,20,12,16,13.60
2017,09,20,12,17,13.60
2017,09,20,12,18,13.60
2017,09,20,12,19,13.60
2017,09,20,12,20,13.70
2017,09,20,12,21,13.70
2017,09,20,12,22,13.80
2017,09,20,12,23,13.90
2017,09,20,12,24,14.00
2017,09,20,12,25,14.10
2017,09,20,12,26,14.10
2017,09,20,12,27,14.10
2017,09,20,12,28,14.00
2017,09,20,12,29,13.90
2017,09,20,12,30,13.80
2017,09,20,12,31,13.70
2017,09,20,12,32,13.70
2017,09,20,12,33,13.50
2017,09,20,12,34,13.30
2017,09,20,12,35,13.20
2017,09,20,12,36,13.00
2017,09,20,12,37,12.90
2017,09,20,12,38,12.80
2017,09,20,12,39,12.80
2017,09,20,12,40,12.80
2017,09,20,12,41,12.80
2017,09,20,12,42,12.80
2017,09,20,12,43,12.90
2017,09,20,12,44,12.90
2017,09,20,12,45,12.90
2017,09,20,12,46,12.80
2017,09,20,12,47,12.80
2017,09,20,12,48,12.90
2017,09,20,12,49,12.90
2017,09,20,12,50,12.90
2017,09,20,12,51,12.80
2017,09,20,12,52,12.80
2017,09,20,12,53,12.80
2017,09,20,12,54,12.80
2017,09,20,12,55,12.80
2017,09,20,12,56,12.80
2017,09,20,12,57,12.90
2017,09,20,12,58,12.80
2017,09,20,12,59,12.80
2017,09,20,13,00,12.80
2017,09,20,13,01,12.80
2017,09,20,13,02,12.80
2017,09,20,13,03,12.80
2017,09,20,13,04,12.80
2017,09,20,13,05,12.80
2017,09,20,13,06,12.80
2017,09,20,13,07,12.80
2017,09,20,13,08,12.80
2017,09,20,13,09,12.80
2017,09,20,13,10,12.80
2017,09,20,13,11,12.80
2017,09,20,13,12,12.80
2017,09,20,13,13,12.80
2017,09,20,13,14,12.70
2017,09,20,13,15,12.70
2017,09,20,13,16,12.70
2017,09,20,13,17,12.80
2017,09,20,13,18,12.80
2017,09,20,13,19,12.80
2017,09,20,13,20,12.80
2017,09,20,13,21,12.80
2017,09,20,13,22,12.70
2017,09,20,13,23,12.80
2017,09,20,13,24,12.70
2017,09,20,13,25,12.80
2017,09,20,13,26,12.70
2017,09,20,13,27,12.70
2017,09,20,13,28,12.60
2017,09,20,13,29,12.60
2017,09,20,13,30,12.60
2017,09,20,13,31,12.70
2017,09,20,13,32,12.70
2017,09,20,13,33,12.70
2017,09,20,13,34,12.70
2017,09,20,13,35,12.70
2017,09,20,13,36,12.70
2017,09,20,13,37,12.70
2017,09,20,13,38,12.70
2017,09,20,13,39,12.70
2017,09,20,13,40,12.60
2017,09,20,13,41,12.60
2017,09,20,13,42,12.50
2017,09,20,13,43,12.50
2017,09,20,13,44,12.40
2017,09,20,13,45,12.40
2017,09,20,13,46,12.40
2017,09,20,13,47,12.40
2017,09,20,13,48,12.40
2017,09,20,13,49,12.40
2017,09,20,13,50,12.50
2017,09,20,13,51,12.50
2017,09,20,13,52,12.50
2017,09,20,13,53,12.60
2017,09,20,13,54,12.70
2017,09,20,13,55,12.70
2017,09,20,13,56,12.70
2017,09,20,13,57,12.80
2017,09,20,13,58,12.80
2017,09,20,13,59,12.80
2017,09,20,14,00,12.90
2017,09,20,14,01,12.90
2017,09,20,14,02,13.00
2017,09,20,14,03,13.00
2017,09,20,14,04,13.00
2017,09,20,14,05,13.10
2017,09,20,14,06,13.10
2017,09,20,14,07,13.10
2017,09,20,14,08,13.10
2017,09,20,14,09,13.10
2017,09,20,14,10,13.10
2017,09,20,14,11,13.10
2017,09,20,14,12,13.10
2017,09,20,14,13,13.00
2017,09,20,14,14,13.00
2017,09,20,14,15,13.00
2017,09,20,14,16,13.00
2017,09,20,14,17,13.00
2017,09,20,14,18,12.90
2017,09,20,14,19,12.90
2017,09,20,14,20,12.90
2017,09,20,14,21,12.90
2017,09,20,14,22,12.80
2017,09,20,14,23,12.80
2017,09,20,14,24,12.80
2017,09,20,14,25,12.80
2017,09,20,14,26,12.80
2017,09,20,14,27,12.90
2017,09,20,14,28,12.90
2017,09,20,14,29,12.90
2017,09,20,14,30,12.90
2017,09,20,14,31,12.90
2017,09,20,14,32,12.90
2017,09,20,14,33,12.90
2017,09,20,14,34,12.90
2017,09,20,14,35,12.90
2017,09,20,14,36,12.90
2017,09,20,14,37,12.90
2017,09,20,14,38,12.80
2017,09,20,14,39,12.80
2017,09,20,14,40,12.80
2017,09,20,14,41,12.80
2017,09,20,14,42,12.80
2017,09,20,14,43,12.80
2017,09,20,14,44,12.80
2017,09,20,14,45,12.80
2017,09,20,14,46,12.80
2017,09,20,14,47,12.80
2017,09,20,14,48,12.90
2017,09,20,14,49,12.80
2017,09,20,14,50,12.80
2017,09,20,14,51,12.80
2017,09,20,14,52,12.90
2017,09,20,14,53,12.90
2017,09,20,14,54,12.90
2017,09,20,14,55,13.00
2017,09,20,14,56,13.00
2017,09,20,14,57,13.00
2017,09,20,14,58,13.10
2017,09,20,14,59,13.30
2017,09,20,15,00,13.30
2017,09,20,15,01,13.30
2017,09,20,15,02,13.30
2017,09,20,15,03,13.30
2017,09,20,15,04,13.30
2017,09,20,15,05,13.40
2017,09,20,15,06,13.40
2017,09,20,15,07,13.40
2017,09,20,15,08,13.50
2017,09,20,15,09,13.60
2017,09,20,15,10,13.60
2017,09,20,15,11,13.60
2017,09,20,15,12,13.60
2017,09,20,15,13,13.70
2017,09,20,15,14,13.80
2017,09,20,15,15,13.90
2017,09,20,15,16,13.90
2017,09,20,15,17,14.00
2017,09,20,15,18,14.10
2017,09,20,15,19,14.10
2017,09,20,15,20,14.10
2017,09,20,15,21,14.10
2017,09,20,15,22,14.10
2017,09,20,15,23,14.10
2017,09,20,15,24,14.10
2017,09,20,15,25,14.10
2017,09,20,15,26,14.10
2017,09,20,15,27,14.10
2017,09,20,15,28,14.10
2017,09,20,15,29,14.20
2017,09,20,15,30,14.20
2017,09,20,15,31,14.20
2017,09,20,15,32,14.20
2017,09,20,15,33,14.30
2017,09,20,15,34,14.40
2017,09,20,15,35,14.40
2017,09,20,15,36,14.50
2017,09,20,15,37,14.40
2017,09,20,15,38,14.40
2017,09,20,15,39,14.30
2017,09,20,15,40,14.30
2017,09,20,15,41,14.20
2017,09,20,15,42,14.20
2017,09,20,15,43,14.20
2017,09,20,15,44,14.30
2017,09,20,15,45,14.30
2017,09,20,15,46,14.30
2017,09,20,15,47,14.30
2017,09,20,15,48,14.20
2017,09,20,15,49,14.20
2017,09,20,15,50,14.10
2017,09,20,15,51,14.10
2017,09,20,15,52,14.10
2017,09,20,15,53,14.00
2017,09,20,15,54,14.00
2017,09,20,15,55,14.00
2017,09,20,15,56,14.00
2017,09,20,15,57,14.00
2017,09,20,15,58,14.00
2017,09,20,15,59,13.90
2017,09,20,16,00,13.80
2017,09,20,16,01,13.80
2017,09,20,16,02,13.70
2017,09,20,16,03,13.70
2017,09,20,16,04,13.70
2017,09,20,16,05,13.70
2017,09,20,16,06,13.70
2017,09,20,16,07,13.70
2017,09,20,16,08,13.70
2017,09,20,16,09,13.70
2017,09,20,16,10,13.70
2017,09,20,16,11,13.70
2017,09,20,16,12,13.60
2017,09,20,16,13,13.60
2017,09,20,16,14,13.60
2017,09,20,16,15,13.70
2017,09,20,16,16,13.70
2017,09,20,16,17,13.70
2017,09,20,16,18,13.70
2017,09,20,16,19,13.70
2017,09,20,16,20,13.70
2017,09,20,16,21,13.70
2017,09,20,16,22,13.70
2017,09,20,16,23,13.70
2017,09,20,16,24,13.80
2017,09,20,16,25,13.80
2017,09,20,16,26,13.80
2017,09,20,16,27,13.80
2017,09,20,16,28,13.80
2017,09,20,16,29,13.90
2017,09,20,16,30,13.90
2017,09,20,16,31,13.90
2017,09,20,16,32,14.00
2017,09,20,16,33,14.00
2017,09,20,16,34,14.00
2017,09,20,16,35,13.90
2017,09,20,16,36,13.90
2017,09,20,16,37,13.90
2017,09,20,16,38,13.90
2017,09,20,16,39,14.00
2017,09,20,16,40,14.00
2017,09,20,16,41,14.00
2017,09,20,16,42,14.10
2017,09,20,16,43,14.20
2017,09,20,16,44,14.20
2017,09,20,16,45,14.20
2017,09,20,16,46,14.20
2017,09,20,16,47,14.20
2017,09,20,16,48,14.20
2017,09,20,16,49,14.30
2017,09,20,16,50,14.30
2017,09,20,16,51,14.30
2017,09,20,16,52,14.30
2017,09,20,16,53,14.20
2017,09,20,16,54,14.20
2017,09,20,16,55,14.20
2017,09,20,16,56,14.10
2017,09,20,16,57,14.10
2017,09,20,16,58,14.10
2017,09,20,16,59,14.10
2017,09,20,17,00,14.00
2017,09,20,17,01,14.00
2017,09,20,17,02,14.00
2017,09,20,17,03,14.00
2017,09,20,17,04,14.00
2017,09,20,17,05,14.00
2017,09,20,17,06,14.10
2017,09,20,17,07,14.00
2017,09,20,17,08,14.10
2017,09,20,17,09,14.10
2017,09,20,17,10,14.10
2017,09,20,17,11,14.10
2017,09,20,17,12,14.20
2017,09,20,17,13,14.20
2017,09,20,17,14,14.20
2017,09,20,17,15,14.20
2017,09,20,17,16,14.20
2017,09,20,17,17,14.20
2017,09,20,17,18,14.20
2017,09,20,17,19,14.20
2017,09,20,17,20,14.20
2017,09,20,17,21,14.20
2017,09,20,17,22,14.20
2017,09,20,17,23,14.20
2017,09,20,17,24,14.20
2017,09,20,17,25,14.20
2017,09,20,17,26,14.20
2017,09,20,17,27,14.20
2017,09,20,17,28,14.20
2017,09,20,17,29,14.20
2017,09,20,17,30,14.20
2017,09,20,17,31,14.20
2017,09,20,17,32,14.20
2017,09,20,17,33,14.30
2017,09,20,17,34,14.30
2017,09,20,17,35,14.30
2017,09,20,17,36,14.30
2017,09,20,17,37,14.40
2017,09,20,17,38,14.40
2017,09,20,17,39,14.40
2017,09,20,17,40,14.40
2017,09,20,17,41,14.40